This demonstration page uses our WeatherBlox Daily Observations layout. Learn more.

38.88101, -77.10428

Hourly Observations for October 6, 2020

Temp ( °F °C ) Dew Point ( °F °C ) Humidity (%) Winds ( mph kmh ) Pressure ( in mb ) Visibility ( mi km ) Precip ( " mm )
12:52 am 00:52 Mostly Clear 55 12.8 48 8.9 77 77 WSW 3 6 30.2 1023 10 16.0934 0 0
1:52 am 01:52 Clear 55 12.8 48 8.9 77 77 Calm 30.19 1023 10 16.0934 0 0
2:52 am 02:52 Clear 54 12.2 48 8.9 80 80 Calm 30.18 1022 10 16.0934 0 0
3:52 am 03:52 Clear 52 11.1 48 8.9 86 86 WSW 3 6 30.18 1022 10 16.0934 0 0
4:52 am 04:52 Clear 51 10.6 47 8.3 86 86 SW 3 6 30.18 1022 10 16.0934 0 0
5:52 am 05:52 Clear 50 10 46 7.8 86 86 WSW 3 6 30.18 1022 10 16.0934 0 0
6:52 am 06:52 Clear 49 9.4 46 7.8 90 90 SSW 5 7 30.19 1022 10 16.0934 0 0
7:52 am 07:52 Sunny 51 10.6 47 8.3 86 86 WSW 5 7 30.2 1023 10 16.0934 0 0
8:52 am 08:52 Sunny 55 12.8 47 8.3 74 74 S 3 6 30.19 1023 10 16.0934 0 0
9:52 am 09:52 Sunny 58 14.4 52 11.1 81 81 SSE 7 11 30.19 1022 10 16.0934 0 0
10:52 am 10:52 Mostly Sunny 64 17.8 54 12.2 70 70 S 9 15 30.17 1022 10 16.0934 0 0
11:52 am 11:52 Mostly Sunny 67 19.4 53 11.7 61 61 SSW 9 15 30.14 1021 10 16.0934 0 0
12:52 pm 12:52 Mostly Sunny 69 20.6 55 12.8 61 61 S 9 15 30.11 1020 10 16.0934 0 0
1:52 pm 13:52 Mostly Sunny 70 21.1 55 12.8 59 59 S 12 19 30.08 1019 10 16.0934 0 0
2:52 pm 14:52 Mostly Sunny 71 21.7 56 13.3 59 59 S 13 20 30.04 1017 10 16.0934 0 0
3:52 pm 15:52 Mostly Cloudy 72 22.2 54 12.2 53 53 S 12 19 30.02 1017 10 16.0934 0 0
4:52 pm 16:52 Partly Cloudy 71 21.7 54 12.2 55 55 S 10 17 30.01 1016 10 16.0934 0 0
5:52 pm 17:52 Mostly Sunny 70 21.1 52 11.1 53 53 S 8 13 30.01 1016 10 16.0934 0 0
6:52 pm 18:52 Mostly Clear 66 18.9 53 11.7 63 63 S 8 13 30.01 1016 10 16.0934 0 0
7:52 pm 19:52 Mostly Clear 65 18.3 56 13.3 73 73 S 6 9 30.01 1016 10 16.0934 0 0
8:52 pm 20:52 Mostly Clear 63 17.2 55 12.8 76 76 SSW 6 9 30.01 1016 10 16.0934 0 0
9:52 pm 21:52 Mostly Clear 62 16.7 55 12.8 78 78 S 8 13 29.99 1016 10 16.0934 0 0
10:52 pm 22:52 Mostly Clear 62 16.7 55 12.8 78 78 SSW 8 13 29.99 1016 10 16.0934 0 0
11:52 pm 23:52 Mostly Clear 60 15.6 56 13.3 86 86 SW 5 7 29.97 1015 10 16.0934 0 0

Powered by AerisWeather